Preview of NWS' New Version of Forecast
This preview is not operational and should not be used for support decisions.

Regional Weather Roundup (RWR)

Issued by Gray - Portland, ME (GYX)

                            
000
ASUS41 KGYX 210105
RWRGYX
WEATHER ROUNDUP FOR MAINE AND NEW HAMPSHIRE
NATIONAL WEATHER SERVICE GRAY ME
800 PM EST SUN JAN 20 2019

MEZ002-005-006-010-012-015-018-020-021-024-026-027-029-210200-
MAINE
  
CITY           SKY/WX    TMP DP  RH WIND       PRES   REMARKS
PORTLAND       CLOUDY    19  14  81 NW7G20    29.32R                  
SANFORD        CLOUDY    19  16  88 W8        29.33R                  
BAR HARBOR     LGT SNOW  11   8  88 N14G22    29.21S FOG     WCI  -5  
WISCASSET      CLOUDY    12   8  84 N8        29.30S                  
ROCKLAND       LGT SNOW  15  12  88 VRB7      29.24S FOG              
FRYEBURG       CLOUDY    13  11  92 CALM      29.29S                  
LEWISTONAUBURN MOCLDY    15   9  76 N17G25    29.30S WCI  -1          
AUGUSTA        CLOUDY     9   5  84 N18G24    29.31F BLWGSNOWWCI -10  
WATERVILLE     LGT SNOW N/A N/A N/A MISG        N/A                   
BANGOR         LGT SNOW  11   8  88 NW15      29.29F VSB 3/4 WCI  -5  
GREENVILLE       N/A      2  -5  72 NW23G31   29.24F WCI -21          
MILLINOCKET    CLOUDY    13   8  81 NW13      29.32F BLWGSNOWWCI  -2  
HOULTON        SNOW      14  12  92 N13G18    29.26F VSB 1/2 WCI   0  
PRESQUE ISLE   LGT SNOW  13  10  88 N22       29.34F VSB 3/4 WCI  -6  
FRENCHVILLE    HVY SNOW  11   5  77 MISG      29.40F VSB 1/4          
CARIBOU        HVY SNOW  14   9  80 N22       29.35F VSB 1/4 WCI  -4  
$$

NHZ002-005-008-009-011-012-014-210200-
NEW HAMPSHIRE
  
CITY           SKY/WX    TMP DP  RH WIND       PRES   REMARKS
PORTSMOUTH     MOCLDY    20  13  73 W17G25    29.33R WCI   5          
ROCHESTER      MOCLDY    18  13  80 W8G16     29.32R                  
NASHUA         MOCLDY    17   9  70 NW22G28   29.41R WCI   0          
MANCHESTER     MOCLDY    16   4  59 NW24G31   29.40R WCI  -2          
CONCORD        CLOUDY    11   1  64 NW29G39   29.42R WCI -11          
LACONIA        FLURRIES  10   1  67 W16G25    29.37R WCI  -7          
PLYMOUTH       FAIR       6  -3  67 NW22G31   29.44R HAZE    WCI -16  
BERLIN         CLOUDY     3  -4  72 VRB7      29.44S                  
WHITEFIELD     CLOUDY     3  -4  72 NW7       29.50S                  
JAFFREY        FAIR       9   1  70 NW9       29.40R                  
KEENE          FAIR       6  -3  66 NW13G26   29.53R WCI -10          
LEBANON        FAIR       3  -9  57 N16       29.56R WCI -16          
MT WASHINGTON  SNOWSHWR   5   5 100 W32         N/A  VSB 1/16WCI -20  
$$

VTZ005-007-008-210200-
VERMONT
  
CITY           SKY/WX    TMP DP  RH WIND       PRES   REMARKS
ST JOHNSBURY     N/A      1  -7  68 MISG      29.56R                  
MONTPELIER     CLOUDY    -4  -9  79 NW13G25   29.58S WCI -23          
BURLINGTON     LGT SNOW  -1  -6  79 N7        29.74R                  
$$

MAZ007-012-024-CTZ003-RIZ002-NYZ038-NYZ072-210200-
SOUTHERN NEW ENGLAND AND NY
  
CITY           SKY/WX    TMP DP  RH WIND       PRES   REMARKS
BOSTON         CLOUDY    25  15  66 W21G32    29.38R WCI  11          
WORCESTER      FAIR      12   5  73 NW23G36   29.37R WCI  -7          
NANTUCKET      FRZ RAIN  29  27  92 NW22G28   29.33R FOG     WCI  15  
PROVIDENCE     CLOUDY    24  18  77 NW23G29   29.40R WCI   9          
HARTFORD       FAIR       9   1  70 NW17      29.56R WCI  -9          
ALBANY         FLURRIES   5  -7  57 NW20G26   29.73R WCI -15          
NEW YORK CITY  FAIR      18   7  62 NW23G40   29.66R WCI   0          
$$

ANZ081-ANZ082-ANZ150-NHZ014-MEZ023>029-210200-
COASTAL MARINE OBSERVATIONS
  
STATION/POSITION TIME  TEMP    WIND        PRES    WAVE
                       AIR SEA DIR/SP/G            HT/PER
                 (UTC) (F)     (DEG/KT/KT) (MB)    (FT/S)
MOUNT DESERT ROC 0100   23     300/ 29/ 32  986.2R
MATINICUS ROCK   0000   21     340/ 27/ 30  987.3F
ISLE OF SHOALS   0000   22     320/ 13/ 15  991.9F
JEFFREYS LEDGE   0038      42                N/A    10/ 8
CASHES LEDGE BUO 0050      40               987.9S  10/ 8
$$

.............KEY..............
   WCI - WIND CHILL
   TC  - TEMPERATURE IN CELSIUS
   VSB - VISIBILITY IN MILES
   HX  - HEAT INDEX
   FAIR- INDICATES FEW OR NO CLOUDS BELOW 12,000 FT, WITH NO 
         SIGNIFICANT WEATHER AND/OR OBSTRUCTIONS TO VISIBILITY.